Wind_Speed
21 21 21 21 20 21 21 22 21 20 19 19 18 18 17 17 17 17 15 15 16 15 14 14 14 14 13 12 12 12 11 10 10 8 8 9 9 9 9 10 11 10 10 9 8 8 9 10 12 13 14 13 13 12 9 7 11 12 13 14 12 13 15 16 17 19 17 17 16 13 12 12 11 10 9 9 8 8 9 10 12 13 14 13 11
22 21 21 21 21 21 21 21 21 21 20 20 19 18 18 17 18 17 15 14 15 15 14 14 14 13 12 11 12 13 12 12 10 9 9 9 10 9 8 9 10 10 10 9 9 10 10 10 12 13 13 12 12 13 10 8 10 12 13 14 14 14 15 15 17 18 19 18 15 12 10 10 10 10 11 10 8 8 8 10 10 11 13 12 9
23 23 22 21 21 21 21 21 21 21 20 20 19 19 18 17 18 18 16 15 15 15 14 15 15 14 13 11 11 11 12 13 12 11 11 10 9 10 9 9 9 8 9 10 11 11 9 9 10 11 12 12 11 12 12 10 10 11 10 10 12 13 14 15 15 16 18 17 13 9 8 9 10 10 11 10 9 9 8 10 10 11 12 10 7
23 25 24 22 21 21 21 21 21 21 21 20 20 19 19 18 18 17 16 15 15 15 15 14 13 13 13 12 12 12 11 11 11 11 11 10 10 10 10 10 10 9 9 11 12 11 9 9 10 11 12 13 12 12 12 11 11 11 11 11 12 14 15 15 14 14 15 13 9 7 8 10 9 8 8 8 8 8 9 10 10 9 9 7 6
22 23 25 24 22 21 22 21 21 22 21 21 21 20 19 19 18 17 17 16 15 15 15 14 12 12 13 13 13 13 11 10 10 9 9 9 10 10 10 10 10 9 9 10 10 9 9 10 11 11 12 13 14 14 13 13 12 12 13 14 14 14 15 16 15 13 11 9 8 8 8 7 5 5 6 6 6 7 9 8 8 8 7 6 7
24 23 25 25 24 23 22 22 21 22 22 21 20 20 19 19 18 18 17 17 16 15 14 14 12 13 13 12 13 13 12 11 10 9 9 9 8 8 8 8 8 8 8 8 9 9 9 10 10 10 11 13 14 15 15 14 13 13 14 15 15 15 14 15 13 9 7 7 7 7 6 4 3 4 4 5 7 7 6 6 7 8 9 9 10
25 25 26 25 25 25 25 24 22 21 22 22 20 20 20 19 18 18 17 17 16 15 14 14 13 13 12 12 12 13 13 12 10 10 10 9 8 7 7 7 8 8 8 9 10 10 8 9 10 10 11 13 14 15 15 14 14 14 14 15 16 16 15 16 13 8 6 6 5 4 3 2 3 3 3 4 6 5 5 6 7 8 10 12 12
24 25 28 28 27 27 26 26 24 22 21 21 22 21 20 20 20 19 18 17 16 16 15 14 13 13 12 12 13 14 12 10 10 11 11 10 9 8 8 9 9 8 8 9 10 9 7 8 10 11 12 14 15 15 15 14 14 14 14 14 14 15 16 17 12 6 5 4 1 1 1 3 4 4 5 6 5 7 8 7 8 9 9 10 11
25 24 27 28 28 27 26 26 26 25 22 21 22 23 20 20 21 20 19 18 17 17 15 14 13 12 13 14 15 15 13 12 12 11 10 10 11 10 9 10 10 10 10 9 9 8 6 7 8 9 9 11 13 14 14 13 12 11 11 11 11 11 11 8 1 5 3 1 1 1 3 5 6 7 8 8 9 10 9 7 8 9 9 9 12
27 26 26 27 27 27 27 27 27 28 26 22 22 24 24 22 20 19 19 19 17 16 15 15 13 12 14 17 17 15 15 14 13 11 10 10 10 11 11 10 9 10 10 9 8 7 6 6 7 7 8 9 11 12 12 12 11 9 9 9 9 8 8 7 6 5 2 1 2 3 5 7 8 8 9 10 10 10 9 10 10 10 11 12 15
28 27 26 24 26 28 29 28 27 28 29 26 22 24 27 25 20 17 19 21 19 18 17 16 14 14 15 15 16 17 16 16 14 13 12 10 9 11 12 10 8 8 8 7 7 7 7 8 8 8 9 10 9 10 10 9 8 7 7 7 8 7 6 6 6 5 4 4 5 6 9 11 12 11 11 10 10 10 10 11 11 11 11 14 16
26 24 22 22 25 28 29 29 28 27 29 29 26 25 26 25 23 20 21 24 24 23 22 19 16 16 15 14 16 16 15 15 14 12 11 10 9 9 10 9 7 7 6 7 8 8 8 8 8 8 8 7 7 8 6 5 6 7 6 5 6 7 8 8 8 8 9 9 10 13 14 15 15 16 15 13 10 9 8 8 9 10 11 14 15
20 19 20 23 26 29 28 29 29 29 30 31 30 28 26 25 23 22 22 24 25 24 24 22 19 17 15 16 17 16 15 15 14 12 10 9 8 9 9 8 8 8 8 8 8 8 9 9 7 6 4 3 3 3 2 5 6 6 6 7 8 11 13 13 13 13 13 13 14 16 16 15 15 17 16 14 11 10 9 9 8 8 11 15 15
17 18 21 24 25 27 28 28 28 28 29 30 29 27 26 25 24 24 24 23 23 22 21 21 21 19 16 16 17 16 15 14 13 11 10 9 9 10 10 9 9 10 9 8 8 9 8 7 5 2 3 2 0 2 4 5 6 8 9 11 13 15 15 16 16 15 15 15 16 17 17 16 16 16 15 14 13 13 12 11 9 9 9 12 13
17 21 24 25 26 27 29 29 27 27 30 30 27 24 23 23 25 28 27 24 22 20 17 17 21 21 19 17 17 15 14 13 11 10 9 9 9 9 10 10 9 9 8 8 8 7 6 4 3 5 6 5 5 6 7 8 10 11 13 15 16 17 17 18 17 17 17 17 17 17 17 16 16 15 14 14 13 13 11 9 8 8 6 5 8
16 21 25 26 27 26 27 29 28 28 30 29 26 25 24 24 26 29 28 24 22 21 19 20 22 23 22 21 19 16 14 11 9 8 8 8 8 9 9 9 8 8 8 7 6 5 5 5 6 8 9 10 11 11 11 12 12 12 14 17 18 19 20 20 19 18 18 17 17 17 16 15 15 14 14 13 12 11 9 7 7 9 9 7 8
14 19 23 25 25 25 25 27 28 29 28 23 21 24 26 26 28 30 28 27 25 24 25 25 25 23 22 21 18 15 12 9 8 8 8 7 7 7 7 7 6 6 7 7 8 8 9 9 9 11 13 14 14 13 11 10 11 12 13 15 17 18 19 18 18 18 17 17 17 16 16 17 16 15 15 14 13 12 11 11 13 15 16 15 14
11 16 19 20 21 22 24 26 26 26 25 20 19 23 25 24 26 25 26 28 29 27 27 27 25 23 20 18 16 13 10 9 8 7 6 6 7 6 4 4 5 7 9 11 12 13 14 14 14 15 17 17 17 16 13 11 13 15 15 15 16 16 15 14 16 18 17 17 18 18 17 17 16 15 15 15 15 15 15 17 17 17 17 17 16
6 11 15 14 14 17 21 23 22 20 18 16 17 21 25 27 26 22 22 27 29 28 27 25 23 21 18 16 14 12 10 10 10 8 6 6 6 5 3 4 7 12 15 17 18 18 18 18 17 17 17 18 18 18 15 13 14 15 14 15 16 15 13 13 14 15 14 14 15 15 14 12 12 13 14 14 15 16 17 17 17 17 17 16 16
2 6 10 11 10 11 14 17 17 15 14 14 14 15 19 25 27 22 20 24 28 28 26 24 21 17 15 13 12 12 11 11 11 9 7 6 6 6 6 8 13 17 20 20 21 22 21 21 19 17 17 18 18 17 14 11 12 12 12 14 15 14 13 13 12 11 11 11 12 12 10 9 11 12 13 14 15 17 17 18 17 17 16 16 17
6 5 5 6 7 7 8 10 12 13 13 12 11 10 12 19 23 22 19 21 24 24 23 21 19 16 14 12 11 11 11 11 11 10 9 8 9 9 10 13 16 20 22 22 22 22 22 21 19 17 17 17 16 15 13 11 12 13 12 13 13 11 11 12 11 10 10 10 10 10 9 9 11 13 14 15 17 18 18 18 17 16 15 16 16
6 7 8 8 7 7 7 7 7 7 7 6 5 4 7 12 17 19 21 23 23 22 21 20 19 18 16 13 12 12 13 12 11 11 10 10 11 11 12 15 18 19 21 22 22 22 22 21 19 17 16 15 14 13 13 13 14 14 13 12 11 10 10 11 10 10 10 10 10 11 11 11 12 13 14 15 17 17 17 17 15 14 14 13 12
6 6 6 6 5 5 6 6 4 3 3 3 2 0 3 7 10 14 20 22 21 20 20 20 20 20 19 18 16 15 15 14 13 12 12 12 12 12 13 16 17 17 19 21 23 23 22 21 19 16 14 13 13 13 13 13 13 13 12 11 11 11 11 10 10 10 10 10 11 12 12 13 13 14 14 15 16 16 15 15 13 13 12 10 11
5 6 5 4 3 3 3 3 3 3 4 3 4 4 7 10 12 14 19 21 21 21 21 21 21 21 22 21 20 18 17 16 15 14 14 14 14 15 15 16 16 16 19 21 23 22 21 19 17 14 13 13 14 14 14 13 13 13 12 12 11 11 11 11 11 10 10 11 12 13 13 14 14 14 14 15 16 15 14 13 12 12 10 8 12
7 8 7 6 5 5 5 5 6 7 7 5 6 9 12 15 19 22 24 25 25 25 25 23 22 23 23 22 21 19 18 18 18 16 15 16 16 16 15 15 16 18 20 21 21 20 18 17 15 14 14 13 13 13 13 13 12 12 12 11 11 11 11 11 11 11 11 11 11 12 11 11 13 13 12 13 16 16 16 16 14 13 11 10 11
10 11 10 9 8 8 8 9 10 11 11 10 11 14 17 20 24 27 27 27 26 26 25 24 23 23 23 22 21 20 20 20 20 19 18 17 16 15 15 17 18 19 19 20 19 18 18 16 15 14 13 12 12 12 13 13 11 11 12 12 12 12 13 12 12 11 11 11 11 12 11 10 12 12 11 12 14 15 19 19 16 15 14 12 11
13 15 16 15 14 13 13 14 14 15 15 16 16 18 20 23 26 27 27 26 25 25 25 24 22 22 23 23 22 23 23 22 22 20 18 17 17 17 19 20 20 18 18 19 19 18 17 16 15 14 13 13 14 14 14 13 11 11 13 14 14 13 12 13 13 12 13 12 11 12 11 10 10 10 10 12 12 13 17 18 17 16 15 14 12
14 16 17 17 16 15 15 16 17 18 19 19 20 20 20 21 23 23 21 21 23 23 21 19 19 21 24 25 24 24 24 23 22 20 19 19 20 21 21 20 18 17 17 19 19 18 18 17 17 16 14 14 15 15 13 12 10 11 12 12 13 12 10 11 13 13 13 11 10 10 10 10 10 10 10 11 11 12 16 16 16 16 16 14 13
16 14 14 15 15 13 12 14 17 20 22 23 23 22 20 19 19 18 18 18 19 17 15 13 13 17 22 23 22 23 24 24 21 20 19 20 21 21 19 18 18 18 19 19 18 17 16 15 13 12 11 11 11 11 12 11 11 12 11 9 12 13 11 10 11 11 11 10 10 10 10 10 11 11 11 11 11 12 15 15 15 15 16 15 14
17 14 14 16 16 13 12 14 17 20 22 22 21 20 19 18 16 17 18 18 18 17 16 14 13 15 19 19 18 20 23 24 22 21 21 20 19 18 18 18 20 20 19 18 16 14 13 12 10 8 8 8 7 6 7 8 9 11 10 8 10 13 12 10 10 10 10 9 10 10 11 11 11 12 12 12 12 12 13 14 14 15 16 15 15
16 14 14 15 15 14 15 17 18 20 20 18 19 20 20 19 18 17 18 18 18 18 19 18 15 15 17 17 17 20 23 23 23 22 21 19 17 17 18 19 19 18 17 16 15 12 10 10 9 8 8 9 9 8 8 7 6 7 8 9 10 11 12 12 10 10 10 9 9 9 10 9 10 11 11 12 12 12 13 14 15 15 15 14 15
16 16 17 17 16 16 17 18 19 19 17 16 17 20 21 21 20 18 16 16 16 17 17 17 15 14 13 13 17 22 24 23 22 21 19 17 17 17 18 19 18 17 16 15 13 11 9 8 8 7 6 7 8 7 8 8 6 5 7 7 9 11 13 13 12 10 9 8 9 8 9 9 9 11 11 12 12 12 13 13 14 15 14 14 14
16 17 19 19 18 17 17 18 20 20 18 18 19 20 20 21 22 20 17 16 16 16 16 15 14 13 12 11 13 19 22 21 19 18 17 16 17 18 18 18 18 17 16 15 13 11 9 8 9 9 8 7 7 5 6 6 5 5 7 6 6 10 12 12 12 10 8 7 10 9 9 10 10 11 11 12 11 11 12 13 14 15 15 16 16
16 17 17 17 16 15 15 18 20 19 18 19 20 21 21 21 21 21 20 19 19 18 17 16 15 14 13 11 11 16 19 18 15 15 16 16 17 17 18 19 18 17 14 12 11 9 7 8 9 9 8 8 7 6 6 4 3 4 5 4 4 7 9 10 12 11 9 7 11 10 11 11 11 11 10 11 11 11 12 12 13 14 15 15 16
15 15 15 15 15 15 16 18 19 19 18 19 20 22 22 22 21 20 20 20 21 20 20 19 17 15 13 12 13 16 17 15 14 15 15 15 16 17 18 19 16 12 10 9 8 6 6 8 9 7 6 6 5 5 5 2 1 2 4 3 3 5 6 7 12 14 11 6 11 12 11 9 11 11 9 9 9 10 11 12 13 14 14 14 15
16 17 16 15 15 16 18 18 19 20 20 18 18 20 22 21 20 20 20 19 20 21 21 20 18 16 14 14 15 17 16 15 16 16 15 15 17 17 16 15 12 9 7 7 7 5 4 5 5 4 3 4 4 4 2 0 2 4 7 5 3 5 7 9 12 15 11 6 10 11 9 7 9 9 8 8 8 9 11 12 12 12 13 14 14
14 16 16 15 14 15 16 18 19 19 19 18 17 18 19 18 17 18 19 20 20 20 21 20 19 18 17 17 17 18 17 17 17 16 16 17 16 15 13 10 8 8 7 7 6 5 3 4 4 3 3 4 4 2 0 1 1 3 7 8 6 8 10 10 12 14 10 6 7 9 7 6 8 8 8 8 9 10 10 11 11 11 12 13 13
12 14 15 14 14 15 16 18 18 18 18 19 19 18 18 17 17 17 18 20 21 21 20 20 20 20 20 20 19 18 18 18 18 16 17 17 16 13 11 9 8 8 8 7 6 6 5 4 5 5 5 4 3 3 2 1 2 2 3 5 5 7 8 6 10 11 8 5 6 7 6 5 7 7 7 7 9 10 10 10 11 12 12 12 13
12 13 13 13 14 14 15 17 17 17 18 19 18 17 17 17 17 16 16 18 20 22 21 21 21 20 20 20 20 20 19 18 16 16 17 17 16 13 11 9 8 9 9 9 9 7 6 6 6 6 6 5 4 6 5 1 4 5 3 4 1 4 4 5 10 10 7 4 5 6 5 6 6 6 7 7 8 9 10 10 11 12 12 12 13
13 14 13 12 11 11 12 14 15 16 16 17 16 16 16 16 16 16 16 16 19 21 21 20 19 18 19 19 19 20 19 16 14 14 15 16 15 13 11 9 9 9 9 10 9 7 7 8 7 6 6 5 5 5 4 1 1 3 3 2 2 3 2 6 11 8 5 3 4 5 5 8 6 6 8 9 9 9 10 10 11 12 12 12 13
14 14 12 11 11 10 11 13 14 14 15 15 15 15 15 15 15 15 15 16 17 18 18 18 16 14 15 18 18 18 16 14 13 13 14 15 15 12 10 10 11 10 9 8 7 6 9 9 4 1 4 7 5 3 3 1 2 0 2 2 3 2 1 5 10 7 3 2 4 4 3 6 6 6 9 10 9 8 10 10 10 11 11 12 13
13 13 13 14 13 11 12 14 14 14 14 15 14 14 15 15 15 15 15 16 16 16 16 17 16 13 11 15 18 17 14 13 12 12 13 15 14 12 10 11 12 10 9 9 8 9 10 7 1 2 6 8 4 1 1 3 2 1 1 4 7 6 3 4 6 5 3 2 4 4 4 5 6 5 8 9 7 7 9 9 9 10 11 11 12
12 12 14 16 15 13 13 14 15 15 15 15 14 14 15 15 15 16 16 16 16 16 16 17 17 14 11 13 18 17 14 13 13 13 13 14 13 11 11 11 11 11 12 13 12 11 8 4 2 5 10 10 6 4 3 4 4 3 3 4 8 9 5 3 3 2 1 2 1 3 4 4 5 5 7 8 7 7 8 9 9 10 10 11 12
13 12 14 16 15 14 14 15 15 15 15 15 14 14 15 15 15 16 16 17 17 16 16 18 19 17 14 15 19 19 17 16 16 16 16 14 12 12 13 13 12 12 13 14 13 10 5 4 6 10 12 12 11 8 7 6 7 7 5 5 6 7 6 5 5 5 4 4 2 1 2 1 3 4 6 6 7 7 7 8 10 10 10 11 12
14 13 14 15 15 15 15 16 16 16 15 15 15 15 15 16 16 16 16 17 19 19 18 19 20 19 18 20 22 22 20 19 17 17 16 15 14 14 14 14 15 15 14 12 11 7 4 6 9 11 11 11 11 10 10 10 10 9 7 6 6 7 8 6 5 5 4 4 3 1 1 1 2 5 6 5 6 7 7 8 10 10 10 11 12
14 14 14 15 15 16 16 16 16 17 17 17 17 18 17 17 17 17 16 17 18 19 19 21 23 22 21 22 23 23 23 21 18 16 16 16 15 15 14 15 16 16 13 10 8 7 7 10 12 11 10 9 8 9 10 10 9 9 8 8 8 8 8 7 6 4 2 4 3 0 1 1 2 5 6 5 5 7 8 9 9 10 10 11 11
15 14 14 15 16 16 17 17 17 18 18 18 19 20 20 18 18 19 19 18 18 18 18 20 23 23 23 23 24 24 24 21 17 15 16 16 15 15 16 17 18 16 13 10 8 9 11 13 12 11 10 10 10 9 8 7 7 7 6 5 4 5 7 7 6 4 3 3 2 1 0 1 2 4 5 5 5 6 8 9 9 9 10 10 11
16 16 15 15 16 17 17 18 18 18 18 18 19 21 21 20 20 21 21 20 20 19 17 16 18 20 21 21 22 23 23 20 17 17 18 17 16 16 17 18 18 17 15 12 11 12 13 13 11 11 12 12 11 10 7 5 7 8 5 2 2 4 5 6 6 5 3 4 3 2 2 2 4 5 4 4 5 6 7 8 8 9 9 9 11
16 16 16 16 17 18 18 18 19 19 19 19 19 20 21 20 20 22 23 23 22 21 19 18 18 18 18 18 18 20 20 19 19 19 18 17 17 17 17 16 15 13 12 13 14 15 14 14 14 13 12 12 11 10 9 9 10 9 4 2 3 5 5 5 5 4 3 5 4 4 4 1 6 6 4 4 4 5 6 7 8 8 9 10 11
18 18 18 18 18 18 18 18 19 20 20 20 20 21 22 22 22 22 23 23 21 21 21 20 20 20 19 18 18 18 19 20 21 20 19 18 17 17 18 16 14 11 12 15 18 17 15 15 14 13 10 8 7 7 8 10 10 6 3 3 5 6 5 5 6 5 4 4 5 6 5 1 5 5 4 4 4 4 6 7 7 8 10 10 11
21 20 19 19 19 19 19 19 20 20 21 22 21 21 23 24 23 22 21 22 22 22 21 21 21 21 21 20 20 20 20 21 21 20 19 18 18 18 18 18 18 17 16 15 16 16 15 14 13 11 10 8 7 8 10 12 11 7 5 6 8 7 5 6 6 5 4 4 6 8 4 2 4 4 2 3 3 3 5 7 7 8 10 10 11
Wind_Direction
202 202 201 199 201 203 205 204 201 202 203 205 208 208 210 211 210 218 220 206 205 215 218 212 213 220 218 212 220 231 235 234 231 231 232 239 248 253 255 264 275 284 288 297 308 306 305 310 312 315 315 308 301 299 301 299 296 300 303 303 308 314 314 311 307 309 314 319 324 324 323 328 331 333 337 338 339 348 354 345 336 339 343 348 356
204 204 204 203 204 204 204 206 205 204 206 207 209 210 211 213 214 217 221 213 210 218 217 210 214 226 226 219 221 227 232 235 233 228 231 239 248 255 263 269 275 282 288 293 297 297 301 307 310 312 311 308 304 302 303 305 303 301 298 300 309 318 320 316 311 310 310 315 321 321 321 329 331 334 339 343 343 346 359 357 348 353 358 0 9
207 206 206 205 206 206 204 207 207 206 209 210 211 213 211 213 216 215 213 212 216 223 219 213 214 217 221 230 238 235 236 240 236 230 237 245 247 257 272 276 276 284 291 293 296 300 307 314 316 313 310 312 313 311 314 318 312 305 301 301 305 311 315 311 306 304 305 312 321 324 327 332 332 337 344 353 352 350 9 12 -0 5 13 15 22
208 207 208 207 207 208 207 208 209 209 211 213 214 215 214 215 215 215 215 215 215 219 222 224 222 212 211 222 234 237 235 234 234 238 249 253 249 256 267 270 274 280 289 300 303 304 314 323 321 313 306 307 311 311 312 311 307 304 299 293 294 301 305 303 300 300 301 307 315 322 332 330 327 339 354 5 4 10 36 27 2 8 19 15 14
209 205 207 207 207 209 209 209 211 211 213 214 216 216 216 216 216 216 217 217 216 216 221 227 226 218 216 219 227 234 233 228 230 234 242 248 249 252 256 260 267 277 293 306 302 300 314 321 316 308 301 299 301 302 302 302 300 297 293 289 289 291 294 296 300 302 299 300 306 317 330 335 337 351 3 13 12 24 46 31 357 5 10 356 356
213 208 205 205 207 210 210 211 213 215 215 216 217 218 218 217 217 217 216 216 218 218 219 222 222 221 222 222 226 232 234 235 234 229 235 251 256 252 255 262 271 282 292 294 291 299 310 304 296 296 295 293 294 298 299 299 300 298 294 291 289 287 287 289 292 295 296 296 299 307 318 334 353 5 15 8 350 -0 35 28 358 2 358 347 353
213 212 208 205 207 210 210 211 214 217 219 220 219 220 221 220 219 218 216 215 216 218 220 221 221 221 223 224 227 231 234 237 235 229 233 247 259 260 265 272 273 273 274 277 285 293 295 286 281 283 290 295 295 294 295 298 299 295 290 290 291 290 290 287 282 279 286 286 282 290 306 344 356 358 9 352 337 354 32 27 16 20 4 348 355
211 214 211 208 209 212 213 212 212 214 219 222 221 221 222 222 222 221 218 217 217 218 219 222 222 222 224 227 231 236 237 236 233 229 229 240 257 267 271 270 267 261 264 279 287 283 278 276 279 285 295 300 296 293 297 302 300 296 296 300 302 302 301 295 280 253 252 264 249 267 317 5 1 347 339 339 2 31 36 28 26 33 18 354 2
209 210 211 211 211 212 214 215 214 213 215 220 222 222 222 222 224 224 221 220 221 219 218 221 222 222 223 223 228 235 237 238 240 238 237 246 256 262 264 264 267 265 266 271 270 267 266 270 283 297 303 301 300 303 309 313 313 317 327 335 337 338 337 330 236 162 189 229 99 30 354 5 10 9 9 23 44 42 32 29 27 30 29 19 24
215 213 212 212 212 211 211 214 214 213 213 217 221 222 221 220 222 223 220 219 219 216 215 218 220 223 225 224 228 235 237 239 244 246 250 255 254 258 262 263 268 274 274 269 263 257 252 258 276 289 292 293 299 307 316 324 333 347 359 359 2 12 19 36 79 98 65 51 58 11 12 24 29 36 44 58 66 55 42 43 41 39 35 27 24
223 219 215 213 214 215 214 215 217 215 213 215 218 221 222 221 219 216 215 215 214 210 208 207 210 220 225 226 229 234 236 238 240 242 251 255 249 256 268 272 272 275 271 265 267 265 260 261 265 270 279 290 296 304 319 338 358 16 18 8 11 27 35 45 65 68 60 74 77 61 58 57 53 55 59 64 67 61 57 56 47 42 35 22 10
229 225 223 221 223 225 222 221 223 221 217 215 217 219 220 223 224 221 218 217 214 213 210 203 202 214 223 222 222 227 232 233 233 237 246 249 245 253 264 267 263 259 253 254 262 262 256 256 261 271 283 292 293 299 324 7 28 31 29 25 35 54 65 71 76 78 78 83 84 78 71 65 61 59 57 56 55 49 54 61 47 36 34 25 11
233 229 229 228 228 229 228 226 227 226 220 217 218 219 219 222 227 228 226 224 223 223 221 214 207 212 221 224 222 221 223 224 228 238 243 242 243 247 251 254 250 251 257 258 252 246 245 252 266 276 277 278 280 290 8 31 35 50 65 75 79 82 84 84 84 85 85 85 84 80 72 64 60 56 52 51 46 32 34 48 42 30 36 35 24
233 228 228 230 230 230 229 228 228 228 225 221 219 220 220 221 228 232 229 226 224 222 218 214 213 214 219 224 222 216 215 221 232 243 239 234 240 247 251 253 250 250 253 246 237 239 247 258 264 221 185 196 210 76 58 52 74 92 94 93 93 91 89 87 87 87 85 81 79 74 67 58 53 48 43 41 37 27 25 29 24 25 43 47 37
232 229 229 230 230 231 229 227 226 226 226 221 215 213 214 214 223 232 230 224 221 217 210 210 214 213 213 219 221 217 220 231 241 238 229 230 241 249 253 255 252 247 238 229 233 241 239 226 178 156 155 138 105 91 86 95 106 106 102 98 94 91 87 84 82 80 77 74 69 65 60 53 48 44 38 34 32 27 24 22 14 17 30 47 41
231 230 231 231 231 232 231 228 224 223 223 219 210 210 212 211 216 224 225 222 220 218 216 218 216 213 213 219 224 226 230 238 238 222 219 234 245 249 253 252 244 229 213 208 209 198 174 158 146 143 139 124 111 106 106 110 110 106 102 98 93 90 85 79 75 72 70 68 65 63 60 54 48 44 38 33 32 28 23 19 15 16 17 22 33
234 231 232 231 230 231 231 228 224 223 223 218 210 210 213 214 217 218 216 218 219 217 217 218 215 214 218 221 222 225 226 226 221 212 215 233 245 251 258 254 235 209 192 185 173 152 141 143 142 135 127 120 115 111 110 110 106 100 94 89 84 78 71 65 66 66 62 60 59 55 51 47 42 40 39 34 30 27 23 24 26 24 24 26 28
240 231 229 228 225 225 228 228 226 227 228 224 218 217 214 214 220 218 211 212 213 210 210 213 212 213 215 215 215 216 211 203 202 203 207 224 234 239 251 247 214 176 156 146 137 126 121 124 127 123 118 114 106 97 87 84 89 89 86 85 81 75 65 56 56 58 55 52 52 48 44 39 34 36 38 34 31 30 28 29 29 24 22 23 19
230 219 219 217 212 215 222 224 224 229 230 223 220 218 211 210 217 217 206 203 206 207 208 210 210 206 204 203 202 198 190 183 183 189 194 200 207 206 198 186 169 155 145 136 127 119 116 116 115 115 114 111 105 100 95 90 89 88 87 86 84 85 85 72 61 60 59 56 58 59 52 37 30 35 38 34 30 29 28 28 25 20 19 20 15
139 202 208 202 195 202 212 217 221 228 228 221 219 214 204 204 210 212 204 200 206 212 212 208 205 199 192 188 183 177 177 177 173 174 176 169 167 169 164 157 152 147 141 135 129 121 116 114 111 110 111 111 112 117 118 109 101 100 97 89 84 86 90 84 76 73 69 64 69 73 62 39 32 34 33 30 26 24 24 23 20 17 17 18 15
100 109 133 155 172 182 191 206 218 226 232 235 232 215 200 203 209 211 210 207 208 212 209 201 196 188 178 172 167 164 169 171 163 157 157 153 150 151 149 146 146 143 138 133 128 122 116 112 110 110 112 113 117 123 124 113 103 101 97 93 92 91 89 88 88 84 75 65 63 65 56 39 35 32 27 24 21 18 18 17 15 16 18 16 13
135 129 126 136 152 157 159 175 200 213 228 243 239 197 186 199 205 206 205 203 201 198 190 181 174 167 159 158 163 159 154 153 151 148 145 142 141 145 147 144 144 143 138 131 124 119 115 112 111 111 112 111 111 113 112 106 100 96 91 88 89 85 80 78 77 72 65 54 47 46 43 37 34 28 21 18 16 13 12 13 13 17 20 20 22
163 151 145 152 157 157 158 164 175 182 192 219 246 153 150 171 185 192 190 184 177 167 159 155 153 151 149 150 154 151 146 144 143 140 136 134 137 142 143 140 140 140 136 129 123 119 115 113 111 110 108 107 106 103 98 94 89 86 82 78 73 70 68 66 62 58 52 45 42 39 35 30 24 19 14 14 16 16 15 15 18 20 22 32 48
137 125 121 132 140 148 150 144 142 132 124 137 152 140 131 137 148 160 162 158 149 143 144 148 150 149 147 145 144 143 143 142 140 139 138 138 139 141 139 136 137 137 132 126 122 118 115 111 110 110 109 106 102 96 89 83 80 78 76 72 67 63 60 56 57 56 50 45 41 37 32 23 18 20 18 10 11 19 24 23 23 25 32 55 61
111 114 119 125 129 141 140 122 113 113 110 118 133 128 125 134 144 148 149 148 146 146 148 150 150 147 145 142 140 141 142 140 138 138 140 141 140 139 137 135 135 135 130 124 119 115 111 109 109 109 106 101 97 92 85 80 79 79 79 75 70 66 62 57 54 51 51 51 44 41 41 27 20 29 27 6 2 10 18 24 29 33 46 66 58
101 101 102 104 110 123 128 117 110 114 121 127 126 123 131 143 146 143 142 144 146 146 147 148 148 146 144 142 141 139 137 137 135 135 136 138 137 135 135 135 134 132 126 119 114 109 107 107 105 101 97 91 85 81 75 69 62 61 65 65 61 59 54 52 54 51 52 51 41 40 46 31 25 35 25 6 5 2 3 15 28 32 40 51 40
97 93 92 98 109 117 117 110 108 112 118 120 121 127 138 146 143 138 139 144 146 147 147 148 148 145 141 139 139 138 137 137 137 137 139 139 137 137 137 136 133 130 124 117 111 106 102 98 90 84 78 70 63 62 65 66 56 46 45 46 51 56 49 42 44 48 53 49 35 37 44 29 27 38 20 9 16 1 354 10 25 25 30 36 25
101 97 95 100 106 112 117 120 121 121 122 123 124 128 137 144 142 138 139 144 147 146 143 144 147 147 143 140 139 139 141 142 142 144 146 145 142 141 140 137 134 129 121 113 106 98 93 88 82 79 75 68 62 59 64 69 58 46 42 36 39 52 61 54 44 41 48 46 28 31 40 23 24 38 22 16 25 5 355 12 22 19 25 28 17
126 127 125 119 109 106 119 132 135 134 133 133 133 135 142 149 146 138 135 139 142 139 134 138 146 146 144 143 143 145 147 148 149 149 147 145 144 142 141 138 128 117 108 102 99 94 90 86 81 76 76 80 76 67 65 63 50 48 56 46 33 37 53 67 55 41 44 40 18 21 32 22 27 38 24 20 29 12 3 15 16 15 24 24 15
132 126 126 124 120 122 134 139 139 139 138 138 140 143 146 146 143 138 137 140 144 144 145 148 150 147 146 149 153 155 152 148 148 147 143 143 144 142 139 132 120 110 103 98 92 87 86 86 83 78 85 97 97 83 78 74 61 57 56 34 18 26 38 55 55 46 45 32 11 20 29 20 27 37 22 15 25 16 10 15 12 14 24 19 12
119 114 117 121 123 132 142 146 147 146 143 143 144 145 144 144 145 144 142 142 145 149 153 156 155 154 153 152 151 152 148 144 145 146 145 145 142 136 132 129 122 117 113 107 100 97 100 108 111 108 105 103 95 87 85 84 79 71 50 15 1 12 30 43 47 47 48 28 4 19 30 17 29 40 21 12 23 19 13 15 12 14 22 15 11
127 133 137 138 138 142 149 157 159 154 149 148 149 149 149 148 147 145 143 146 149 151 153 156 155 153 151 146 145 148 148 146 148 148 144 142 140 136 135 134 130 124 117 112 113 120 124 125 125 123 120 115 106 95 84 75 67 63 52 28 357 355 17 34 37 42 49 24 358 19 30 16 34 47 24 12 23 20 13 15 11 10 13 12 13
147 148 148 150 154 157 160 166 166 162 157 155 155 155 156 153 148 143 140 143 148 150 151 153 152 150 148 143 145 151 152 150 151 147 140 141 144 143 141 137 132 128 122 117 118 125 128 127 125 122 117 115 115 104 83 70 53 41 49 45 359 348 5 22 26 39 53 15 355 25 36 16 32 51 28 10 20 20 14 16 12 7 10 12 13
151 155 159 160 159 159 160 164 166 166 165 162 159 159 160 157 152 148 145 143 145 147 150 153 154 156 156 154 156 158 155 154 153 147 142 144 144 142 141 139 134 131 129 127 130 134 133 133 134 129 117 108 104 92 75 54 10 22 45 42 353 349 3 10 15 36 58 15 352 24 41 18 23 45 30 11 20 22 14 15 13 7 8 11 12
142 145 152 155 152 148 148 152 156 157 156 157 161 165 164 159 154 155 156 155 152 151 152 155 158 162 165 167 165 162 157 155 151 146 144 147 145 142 142 141 136 130 128 132 141 149 146 143 146 145 135 121 99 77 73 61 322 336 1 358 350 356 1 1 9 30 54 20 350 19 42 21 18 35 27 10 19 20 11 11 13 8 7 10 11
141 137 136 136 138 142 145 146 147 144 142 146 157 165 164 159 156 160 165 166 162 159 158 158 160 164 169 171 167 162 157 151 148 146 148 149 145 140 138 136 133 134 140 145 152 160 166 166 168 167 143 110 77 61 67 214 270 319 335 348 17 6 357 359 5 20 38 19 351 15 41 24 14 25 16 4 18 21 11 9 11 8 7 9 9
139 134 129 129 133 142 149 148 145 143 142 143 145 148 151 151 153 159 166 168 167 166 164 163 162 163 165 166 164 160 155 150 147 148 148 148 146 141 137 137 145 155 158 157 159 167 183 179 165 149 124 104 94 93 7 299 275 337 357 11 13 357 359 2 356 3 22 19 357 14 32 22 16 18 6 5 20 20 11 8 8 7 6 7 7
138 135 137 143 147 149 150 149 147 147 147 143 138 138 143 146 147 152 161 167 168 167 165 165 165 163 163 164 163 159 155 152 150 150 148 148 151 147 138 138 154 162 158 155 159 166 172 163 152 145 137 132 165 203 207 345 299 288 27 43 13 354 6 354 331 345 12 17 4 16 19 13 22 14 353 5 25 18 8 7 5 4 6 6 5
152 155 161 163 159 156 156 154 150 147 147 146 143 144 147 148 147 150 158 166 169 169 166 166 168 168 169 167 163 160 158 154 152 155 155 156 160 156 144 143 163 176 176 176 176 175 167 160 165 171 166 166 212 225 209 216 329 334 42 87 23 349 10 311 310 340 16 8 9 28 359 342 15 12 344 3 29 17 7 8 3 1 6 5 2
163 175 185 177 166 171 173 162 151 147 149 151 151 152 153 152 152 154 156 161 168 171 170 170 171 175 178 175 168 165 164 159 157 162 165 166 169 166 156 155 172 185 189 186 182 176 174 183 197 202 192 200 237 258 249 200 15 346 7 21 322 347 12 302 310 341 23 352 10 43 351 336 9 9 345 9 33 15 1 6 1 358 3 1 358
170 185 190 172 162 173 175 163 156 157 158 159 161 163 163 162 163 162 159 160 166 170 170 172 176 184 187 184 178 174 170 166 167 169 172 175 177 176 175 177 181 184 188 186 180 172 180 196 221 201 178 203 233 279 313 62 122 1 316 296 284 312 344 298 309 338 34 1 10 42 359 347 21 6 343 5 28 8 355 3 358 353 358 357 353
178 187 180 166 165 172 170 165 167 169 168 169 172 174 172 172 173 172 169 168 171 173 171 174 185 198 199 189 185 183 176 174 179 181 182 184 180 174 182 194 191 186 184 182 179 178 181 189 187 139 186 216 237 225 240 240 205 173 261 242 253 271 284 290 309 347 53 23 3 15 348 359 36 14 338 351 12 359 353 358 353 351 357 354 351
187 189 176 168 172 174 171 171 174 174 174 176 177 178 179 180 180 181 180 179 180 179 177 181 194 209 207 190 189 189 182 180 189 194 195 195 186 175 185 197 194 188 188 187 190 195 194 186 184 201 217 233 229 173 193 244 235 203 202 240 263 279 285 267 279 303 152 173 9 355 326 352 36 16 334 340 355 352 350 352 349 351 355 353 355
193 189 176 173 176 176 175 178 179 176 178 180 181 183 184 184 184 188 189 187 186 188 188 191 202 211 204 190 191 194 188 186 196 203 205 206 199 189 192 196 191 189 193 197 205 216 215 191 205 222 235 243 236 215 211 227 226 217 216 229 260 283 286 266 266 269 231 191 144 355 306 349 31 347 321 335 348 346 347 351 352 353 354 354 -0
189 185 178 178 180 180 181 184 185 185 185 183 183 188 191 189 190 195 195 191 194 199 199 199 206 212 203 190 190 195 196 196 203 207 206 206 204 200 199 199 197 197 198 201 208 216 200 190 214 233 245 250 246 235 226 229 234 239 238 231 241 266 277 273 279 284 250 176 126 4 310 93 21 322 314 332 342 341 347 350 349 351 354 357 2
188 186 183 184 186 186 188 190 191 194 195 190 187 191 192 190 193 199 199 197 201 204 204 204 209 213 208 196 192 197 202 203 205 207 207 206 205 202 201 199 198 199 203 210 215 209 198 209 227 240 243 238 236 236 242 251 253 247 244 242 243 260 278 287 293 287 228 158 130 324 261 117 24 327 320 332 338 339 346 347 344 348 354 358 3
193 194 193 192 192 193 194 195 196 198 200 199 199 199 196 191 193 199 201 202 203 205 205 207 209 211 209 204 200 200 203 203 203 206 209 208 204 204 207 207 202 196 196 207 217 211 208 216 228 230 224 221 223 228 244 269 268 251 249 257 260 270 287 295 297 290 249 201 169 166 292 26 0 317 310 324 337 342 343 342 342 348 353 359 4
198 200 201 202 201 199 198 198 200 202 203 205 206 206 203 199 199 201 202 201 200 200 201 204 205 205 205 206 205 204 203 202 203 208 210 206 202 205 210 210 205 202 204 211 216 214 210 211 214 215 217 221 223 217 209 222 247 255 265 285 276 280 288 289 293 297 271 231 196 129 75 340 307 287 291 318 339 343 341 338 340 348 356 3 4
201 204 205 206 205 204 203 202 203 204 206 207 208 209 209 208 207 207 204 201 200 201 202 203 203 201 197 197 201 204 204 204 206 210 209 202 200 207 213 214 216 222 222 210 203 205 208 207 209 215 219 222 221 214 201 207 230 249 272 306 291 294 301 296 294 296 270 244 219 153 126 296 289 285 301 331 335 334 335 335 340 353 1 3 360
204 205 207 208 207 207 207 207 207 207 207 207 208 209 211 211 211 209 206 201 200 201 204 208 211 210 204 201 203 206 207 208 209 210 207 200 199 209 218 216 209 206 202 196 198 206 214 214 214 217 219 218 217 215 213 219 230 245 283 319 309 307 309 303 297 293 276 252 222 179 153 218 283 283 312 335 326 328 339 342 347 358 1 357 352
207 207 208 209 210 209 208 208 208 209 208 208 209 209 210 212 212 210 207 204 204 207 209 212 216 215 209 206 206 206 207 208 207 206 204 203 203 207 209 199 187 185 194 205 212 216 217 216 218 218 214 213 219 221 224 232 244 262 304 325 327 323 314 309 302 291 282 254 216 197 188 257 270 259 288 325 315 327 345 348 353 360 357 350 345
Height
1527 1528 1529 1530 1531 1532 1533 1534 1536 1538 1539 1541 1542 1544 1545 1546 1548 1548 1549 1550 1551 1552 1553 1554 1554 1555 1556 1556 1556 1557 1558 1559 1559 1560 1561 1561 1562 1562 1563 1563 1564 1565 1566 1566 1567 1566 1567 1567 1568 1569 1569 1569 1568 1567 1566 1566 1565 1565 1564 1563 1562 1562 1562 1562 1561 1561 1561 1561 1561 1560 1558 1557 1556 1556 1555 1555 1555 1553 1552 1552 1551 1551 1551 1550 1549
1526 1527 1528 1529 1530 1531 1532 1533 1535 1537 1538 1540 1541 1543 1544 1545 1546 1547 1548 1549 1550 1551 1552 1553 1554 1555 1555 1555 1556 1556 1557 1558 1559 1559 1560 1560 1561 1561 1562 1562 1563 1564 1564 1565 1565 1566 1566 1566 1567 1568 1568 1567 1567 1566 1565 1565 1564 1563 1563 1562 1562 1562 1562 1561 1560 1559 1559 1559 1559 1558 1557 1557 1556 1556 1555 1554 1554 1553 1553 1552 1550 1550 1550 1549 1549
1525 1525 1526 1528 1529 1530 1532 1532 1534 1535 1537 1538 1540 1541 1542 1543 1545 1546 1547 1549 1550 1551 1551 1552 1554 1554 1554 1555 1555 1555 1556 1557 1558 1558 1559 1560 1560 1560 1561 1561 1562 1563 1564 1564 1564 1565 1566 1566 1567 1567 1566 1566 1566 1566 1565 1564 1563 1562 1562 1561 1560 1560 1560 1558 1557 1557 1557 1557 1557 1557 1556 1556 1555 1555 1554 1553 1553 1553 1552 1550 1549 1549 1550 1549 1549
1523 1524 1525 1527 1528 1529 1530 1531 1533 1534 1535 1537 1538 1539 1541 1542 1543 1544 1546 1548 1549 1550 1551 1552 1553 1553 1554 1555 1555 1554 1555 1556 1557 1557 1558 1559 1559 1560 1560 1560 1561 1562 1563 1564 1564 1564 1566 1567 1566 1565 1565 1565 1565 1565 1564 1563 1562 1562 1561 1561 1560 1559 1557 1555 1555 1555 1556 1556 1555 1555 1555 1554 1554 1553 1553 1552 1552 1552 1551 1550 1548 1549 1549 1548 1548
1522 1522 1523 1525 1526 1527 1529 1530 1531 1532 1533 1535 1536 1538 1539 1540 1542 1543 1545 1546 1548 1549 1550 1551 1552 1552 1553 1554 1554 1553 1553 1554 1556 1557 1557 1558 1558 1559 1559 1560 1561 1561 1562 1563 1562 1563 1565 1565 1563 1562 1563 1563 1563 1562 1562 1562 1562 1561 1560 1559 1559 1558 1557 1556 1555 1555 1555 1554 1554 1553 1553 1553 1552 1551 1551 1551 1551 1551 1550 1549 1548 1548 1548 1548 1548
1520 1521 1522 1522 1524 1526 1527 1528 1529 1530 1532 1533 1535 1537 1538 1540 1541 1542 1543 1545 1547 1548 1549 1550 1551 1552 1552 1553 1553 1553 1552 1553 1554 1556 1557 1557 1557 1558 1558 1559 1560 1561 1561 1561 1561 1562 1562 1561 1560 1560 1560 1560 1560 1560 1560 1560 1560 1560 1559 1558 1557 1557 1556 1556 1555 1554 1554 1554 1553 1553 1552 1552 1551 1550 1550 1550 1549 1549 1549 1548 1548 1548 1547 1547 1547
1518 1519 1520 1520 1522 1523 1524 1526 1527 1529 1530 1532 1534 1536 1537 1539 1540 1541 1542 1544 1545 1547 1548 1549 1550 1551 1552 1552 1552 1551 1552 1553 1554 1554 1555 1556 1557 1557 1558 1558 1559 1560 1560 1560 1560 1560 1559 1558 1558 1559 1558 1558 1558 1558 1558 1559 1558 1557 1557 1556 1555 1554 1554 1554 1553 1553 1553 1552 1552 1552 1552 1552 1551 1550 1550 1549 1549 1548 1548 1547 1547 1547 1546 1546 1546
1516 1517 1518 1518 1519 1520 1522 1523 1525 1527 1529 1530 1532 1534 1536 1538 1539 1540 1541 1543 1544 1545 1546 1548 1549 1550 1551 1551 1550 1550 1551 1552 1553 1553 1554 1555 1556 1556 1557 1557 1558 1559 1559 1558 1558 1558 1558 1558 1557 1557 1557 1556 1556 1556 1557 1557 1557 1555 1555 1554 1553 1553 1552 1551 1550 1551 1551 1551 1551 1551 1551 1551 1551 1550 1549 1548 1547 1547 1547 1547 1547 1547 1546 1546 1546
1514 1514 1514 1515 1517 1518 1520 1521 1523 1525 1527 1529 1531 1533 1534 1536 1538 1539 1540 1541 1542 1544 1545 1546 1547 1549 1549 1548 1548 1549 1550 1551 1551 1552 1553 1554 1554 1555 1555 1556 1557 1557 1557 1557 1557 1557 1556 1556 1556 1556 1556 1555 1555 1555 1556 1556 1555 1554 1554 1553 1553 1552 1550 1549 1548 1549 1549 1550 1551 1551 1551 1550 1550 1549 1548 1547 1547 1547 1548 1548 1547 1547 1547 1546 1546
1511 1511 1511 1513 1514 1516 1517 1519 1520 1522 1524 1526 1528 1530 1532 1534 1536 1537 1539 1540 1541 1542 1543 1544 1546 1547 1546 1545 1547 1548 1549 1549 1550 1551 1552 1552 1553 1553 1553 1554 1555 1555 1555 1555 1555 1555 1555 1555 1555 1555 1555 1554 1554 1554 1555 1555 1554 1554 1553 1553 1553 1552 1550 1550 1549 1549 1549 1550 1550 1550 1550 1549 1549 1548 1548 1548 1548 1548 1548 1548 1547 1547 1547 1546 1546
1506 1506 1507 1510 1512 1514 1515 1516 1518 1520 1522 1524 1526 1528 1530 1533 1535 1536 1537 1538 1539 1540 1541 1542 1543 1544 1543 1543 1545 1546 1547 1548 1548 1549 1550 1551 1552 1551 1551 1552 1553 1553 1554 1553 1554 1554 1554 1554 1554 1554 1554 1554 1554 1554 1554 1554 1554 1553 1553 1553 1553 1552 1551 1550 1550 1550 1550 1550 1550 1550 1550 1549 1549 1549 1549 1549 1549 1549 1549 1548 1548 1547 1547 1546 1546
1502 1504 1506 1508 1510 1512 1514 1515 1516 1517 1519 1521 1523 1525 1528 1531 1534 1535 1536 1536 1537 1538 1539 1541 1541 1541 1540 1542 1543 1544 1545 1547 1547 1548 1548 1549 1550 1549 1549 1550 1550 1551 1552 1552 1552 1553 1552 1552 1553 1553 1553 1554 1554 1554 1553 1554 1553 1553 1553 1552 1552 1552 1551 1550 1550 1550 1550 1550 1550 1550 1550 1550 1550 1550 1550 1550 1550 1550 1549 1549 1548 1548 1547 1547 1546
1500 1505 1507 1507 1508 1509 1511 1512 1514 1515 1517 1519 1521 1522 1526 1529 1532 1534 1536 1536 1537 1538 1539 1540 1540 1539 1539 1540 1541 1542 1543 1545 1545 1546 1547 1547 1547 1547 1548 1548 1549 1549 1550 1550 1551 1551 1551 1551 1552 1552 1553 1553 1553 1553 1553 1553 1553 1553 1553 1552 1551 1551 1551 1550 1550 1550 1550 1550 1550 1550 1550 1551 1551 1551 1551 1551 1551 1550 1550 1549 1549 1549 1548 1548 1547
1500 1504 1504 1504 1505 1506 1508 1509 1510 1512 1514 1516 1518 1520 1523 1526 1529 1533 1534 1534 1535 1536 1537 1538 1539 1538 1537 1538 1540 1541 1542 1544 1544 1545 1545 1545 1545 1546 1546 1547 1547 1548 1548 1548 1549 1549 1549 1550 1550 1551 1552 1552 1552 1553 1553 1554 1553 1553 1553 1552 1552 1552 1551 1551 1551 1551 1551 1551 1550 1551 1551 1551 1551 1551 1551 1551 1551 1550 1550 1550 1550 1549 1549 1548 1548
1500 1501 1501 1501 1501 1502 1504 1505 1507 1509 1510 1511 1515 1518 1519 1521 1525 1528 1530 1532 1534 1534 1535 1536 1537 1537 1536 1537 1538 1540 1541 1542 1543 1543 1543 1544 1544 1544 1545 1545 1546 1546 1546 1547 1547 1548 1548 1549 1549 1550 1551 1552 1552 1553 1554 1554 1554 1554 1553 1553 1553 1553 1552 1552 1552 1552 1552 1552 1551 1551 1552 1552 1552 1552 1552 1552 1551 1551 1550 1550 1550 1549 1549 1549 1548
1499 1498 1497 1497 1497 1499 1501 1502 1504 1505 1505 1506 1511 1515 1516 1518 1520 1523 1527 1530 1531 1531 1532 1533 1534 1535 1535 1536 1537 1538 1540 1541 1541 1542 1542 1542 1543 1543 1543 1544 1544 1545 1545 1546 1546 1547 1547 1548 1549 1550 1551 1552 1553 1554 1554 1555 1555 1554 1554 1554 1554 1553 1553 1554 1554 1553 1553 1553 1553 1553 1553 1553 1553 1553 1553 1552 1552 1551 1551 1551 1550 1549 1548 1548 1547
1495 1495 1494 1494 1495 1497 1499 1500 1501 1501 1501 1503 1508 1512 1514 1516 1517 1518 1523 1527 1526 1527 1528 1529 1531 1532 1533 1534 1535 1537 1538 1539 1540 1540 1541 1541 1542 1541 1541 1542 1543 1544 1545 1545 1546 1546 1548 1548 1549 1550 1552 1552 1553 1554 1555 1555 1555 1555 1554 1554 1555 1554 1554 1555 1555 1555 1554 1554 1554 1554 1554 1554 1554 1553 1553 1553 1552 1552 1551 1550 1549 1548 1547 1546 1546
1492 1492 1492 1493 1494 1495 1497 1498 1498 1499 1499 1502 1506 1509 1512 1514 1514 1515 1520 1522 1522 1522 1524 1525 1528 1529 1530 1532 1533 1534 1536 1537 1538 1539 1540 1540 1541 1541 1540 1540 1541 1543 1544 1545 1546 1547 1548 1549 1550 1551 1552 1553 1554 1555 1556 1556 1556 1556 1555 1555 1555 1555 1556 1556 1556 1555 1555 1555 1555 1555 1555 1555 1555 1554 1554 1553 1552 1552 1550 1549 1549 1548 1547 1547 1546
1489 1490 1490 1492 1493 1494 1495 1496 1496 1497 1498 1500 1503 1506 1508 1511 1511 1512 1516 1519 1518 1519 1521 1523 1525 1527 1528 1529 1530 1531 1533 1535 1537 1538 1538 1539 1540 1540 1539 1539 1540 1542 1544 1546 1547 1548 1549 1550 1551 1552 1553 1554 1555 1556 1557 1557 1557 1557 1557 1557 1557 1557 1557 1557 1557 1557 1557 1557 1556 1557 1557 1556 1556 1555 1554 1554 1553 1552 1551 1550 1550 1549 1548 1547 1546
1489 1489 1490 1491 1492 1493 1494 1495 1496 1496 1497 1499 1501 1503 1505 1507 1508 1509 1512 1515 1516 1516 1518 1521 1524 1526 1527 1528 1529 1530 1531 1533 1535 1536 1536 1538 1539 1539 1539 1539 1540 1542 1544 1546 1547 1548 1550 1551 1552 1553 1554 1555 1556 1557 1557 1558 1557 1557 1558 1557 1557 1558 1558 1558 1559 1558 1558 1558 1557 1557 1557 1557 1556 1555 1555 1554 1553 1552 1551 1550 1550 1549 1548 1547 1546
1489 1490 1491 1491 1493 1493 1494 1495 1496 1496 1498 1498 1499 1500 1503 1504 1506 1508 1510 1512 1513 1515 1517 1520 1522 1525 1527 1528 1529 1530 1531 1533 1535 1535 1536 1537 1538 1539 1539 1540 1541 1543 1544 1546 1547 1549 1550 1551 1552 1554 1555 1555 1557 1557 1558 1558 1558 1558 1558 1558 1558 1559 1559 1559 1559 1559 1558 1558 1557 1557 1557 1556 1556 1555 1554 1554 1553 1552 1551 1551 1550 1549 1548 1548 1547
1491 1491 1492 1492 1493 1494 1495 1496 1497 1498 1499 1499 1499 1500 1502 1503 1504 1506 1508 1509 1511 1513 1515 1518 1520 1523 1525 1527 1529 1531 1532 1533 1534 1535 1536 1537 1538 1539 1540 1541 1543 1544 1545 1547 1548 1549 1551 1552 1553 1555 1556 1556 1557 1557 1558 1558 1558 1558 1559 1559 1559 1559 1559 1559 1559 1559 1558 1558 1557 1557 1556 1556 1555 1555 1554 1554 1553 1552 1552 1551 1550 1550 1549 1548 1548
1492 1492 1493 1494 1495 1496 1497 1498 1499 1500 1500 1501 1501 1501 1502 1503 1504 1506 1507 1508 1510 1512 1515 1517 1519 1522 1525 1527 1530 1531 1532 1533 1534 1536 1537 1538 1539 1541 1542 1543 1545 1546 1546 1547 1549 1550 1551 1552 1553 1555 1556 1557 1558 1558 1558 1559 1559 1559 1559 1559 1560 1560 1559 1559 1559 1559 1558 1558 1557 1557 1556 1556 1555 1555 1554 1554 1553 1553 1552 1552 1551 1550 1549 1549 1549
1493 1493 1494 1495 1496 1498 1498 1499 1500 1501 1502 1502 1502 1503 1504 1504 1505 1506 1508 1509 1511 1514 1516 1519 1521 1522 1525 1528 1529 1531 1532 1533 1535 1537 1538 1539 1540 1542 1543 1544 1546 1547 1548 1548 1549 1551 1551 1553 1554 1556 1557 1558 1558 1559 1559 1559 1559 1559 1560 1560 1560 1560 1560 1560 1559 1559 1558 1558 1558 1557 1557 1556 1556 1555 1555 1555 1554 1554 1553 1552 1551 1550 1549 1549 1549
1494 1495 1496 1496 1498 1499 1499 1500 1501 1502 1503 1503 1503 1505 1506 1507 1507 1508 1509 1510 1512 1515 1517 1520 1521 1523 1526 1528 1529 1531 1533 1534 1536 1537 1539 1540 1542 1543 1545 1546 1548 1549 1549 1550 1551 1552 1553 1554 1555 1556 1557 1558 1559 1559 1560 1560 1560 1560 1560 1561 1560 1560 1560 1560 1559 1559 1559 1558 1558 1558 1558 1558 1557 1556 1556 1556 1555 1554 1553 1552 1551 1550 1549 1549 1549
1497 1497 1497 1498 1499 1500 1501 1502 1503 1504 1504 1505 1505 1507 1508 1509 1510 1511 1512 1514 1515 1517 1519 1521 1523 1525 1527 1529 1530 1532 1534 1535 1536 1538 1540 1542 1543 1545 1546 1548 1549 1550 1550 1551 1552 1553 1554 1555 1556 1557 1558 1559 1560 1561 1561 1561 1561 1561 1561 1561 1561 1560 1560 1560 1560 1559 1559 1559 1559 1559 1558 1558 1558 1557 1557 1557 1555 1554 1552 1551 1550 1549 1549 1549 1548
1499 1499 1500 1500 1501 1501 1502 1503 1505 1506 1507 1508 1509 1510 1512 1513 1514 1515 1516 1517 1518 1519 1521 1522 1524 1526 1528 1530 1531 1533 1534 1536 1537 1539 1541 1543 1545 1546 1548 1549 1550 1551 1551 1552 1553 1554 1556 1557 1558 1559 1560 1560 1561 1562 1562 1562 1562 1562 1561 1561 1561 1561 1561 1560 1560 1560 1560 1560 1560 1559 1559 1559 1558 1558 1557 1556 1555 1554 1553 1552 1550 1549 1549 1549 1548
1500 1500 1501 1502 1503 1504 1504 1505 1506 1508 1509 1510 1511 1513 1515 1516 1517 1517 1519 1520 1520 1522 1523 1524 1526 1527 1529 1530 1532 1534 1535 1537 1539 1540 1542 1543 1545 1547 1548 1550 1551 1551 1552 1553 1555 1556 1557 1558 1559 1560 1560 1561 1561 1562 1563 1563 1563 1563 1563 1562 1562 1561 1561 1561 1561 1561 1560 1561 1560 1559 1559 1558 1557 1557 1557 1556 1555 1555 1553 1552 1551 1550 1549 1548 1548
1499 1499 1499 1501 1503 1506 1507 1507 1508 1509 1510 1511 1513 1514 1517 1518 1519 1519 1521 1522 1523 1525 1526 1526 1527 1529 1530 1532 1533 1534 1536 1538 1540 1542 1543 1545 1546 1548 1549 1550 1552 1553 1554 1555 1556 1557 1558 1559 1560 1561 1561 1562 1563 1564 1564 1564 1564 1563 1563 1563 1562 1562 1561 1561 1561 1561 1561 1561 1560 1559 1559 1558 1557 1557 1557 1556 1556 1555 1554 1552 1551 1550 1549 1548 1547
1500 1500 1499 1500 1502 1506 1508 1509 1510 1511 1512 1513 1514 1516 1518 1520 1521 1522 1523 1524 1526 1527 1528 1529 1529 1530 1532 1533 1534 1536 1537 1538 1541 1543 1545 1547 1548 1549 1550 1552 1553 1554 1555 1556 1557 1558 1559 1560 1561 1563 1564 1564 1565 1566 1566 1566 1565 1564 1564 1563 1562 1562 1562 1561 1561 1561 1561 1561 1560 1559 1558 1558 1557 1557 1557 1556 1555 1555 1553 1552 1551 1550 1549 1548 1547
1501 1502 1501 1501 1503 1506 1508 1510 1511 1513 1514 1515 1516 1517 1518 1520 1522 1524 1525 1526 1527 1529 1530 1531 1531 1532 1533 1534 1535 1537 1539 1541 1542 1544 1546 1547 1549 1550 1552 1553 1554 1555 1556 1557 1558 1559 1561 1562 1563 1564 1565 1565 1565 1566 1566 1566 1566 1565 1565 1563 1563 1563 1563 1562 1561 1561 1561 1561 1560 1559 1559 1558 1557 1557 1557 1556 1555 1554 1553 1552 1551 1550 1549 1549 1548
1502 1503 1503 1503 1504 1506 1508 1510 1512 1514 1515 1516 1517 1518 1519 1521 1522 1524 1526 1527 1528 1530 1531 1532 1533 1534 1535 1536 1537 1539 1541 1542 1544 1545 1547 1548 1550 1551 1553 1554 1555 1556 1557 1557 1559 1560 1562 1563 1564 1564 1564 1565 1565 1565 1565 1565 1565 1565 1565 1564 1563 1563 1563 1562 1561 1561 1561 1561 1560 1559 1559 1558 1557 1557 1557 1556 1555 1554 1554 1553 1552 1551 1550 1549 1548
1503 1503 1503 1504 1504 1506 1508 1510 1512 1514 1516 1517 1518 1519 1521 1522 1523 1524 1526 1528 1529 1531 1532 1533 1535 1536 1537 1538 1539 1540 1542 1543 1545 1546 1547 1549 1550 1552 1553 1555 1556 1557 1558 1559 1560 1561 1563 1563 1564 1564 1564 1564 1564 1565 1565 1565 1565 1565 1565 1565 1564 1563 1563 1563 1562 1562 1561 1561 1560 1559 1559 1558 1557 1557 1557 1557 1556 1555 1554 1553 1553 1551 1550 1549 1548
1502 1503 1504 1504 1505 1507 1508 1510 1512 1514 1516 1517 1519 1520 1521 1523 1524 1525 1526 1528 1530 1531 1533 1535 1536 1537 1538 1540 1541 1542 1543 1544 1546 1547 1548 1550 1551 1553 1554 1555 1557 1558 1559 1560 1561 1562 1563 1562 1562 1563 1563 1564 1564 1565 1566 1566 1565 1565 1565 1565 1565 1564 1564 1563 1563 1562 1561 1561 1560 1559 1559 1558 1558 1557 1558 1557 1556 1556 1555 1554 1553 1552 1551 1550 1549
1503 1504 1505 1506 1507 1508 1509 1511 1512 1514 1515 1517 1519 1520 1522 1523 1525 1526 1527 1528 1530 1531 1533 1535 1537 1538 1540 1541 1542 1543 1544 1545 1547 1548 1549 1551 1552 1554 1555 1556 1557 1558 1560 1560 1561 1561 1561 1561 1561 1562 1563 1563 1564 1566 1566 1566 1565 1565 1565 1565 1565 1564 1564 1563 1563 1562 1561 1561 1560 1559 1560 1560 1559 1559 1559 1558 1557 1556 1556 1555 1554 1553 1551 1550 1550
1505 1506 1507 1508 1508 1509 1510 1512 1513 1514 1516 1517 1519 1520 1522 1524 1525 1526 1527 1529 1530 1532 1533 1535 1537 1539 1540 1541 1542 1544 1545 1546 1548 1549 1550 1552 1553 1554 1556 1557 1558 1559 1560 1560 1560 1560 1560 1561 1562 1563 1564 1564 1566 1566 1566 1566 1565 1565 1565 1565 1564 1564 1564 1563 1562 1562 1562 1562 1561 1560 1561 1561 1560 1560 1559 1558 1557 1557 1556 1555 1554 1553 1552 1551 1551
1506 1507 1508 1509 1510 1510 1512 1513 1514 1515 1516 1518 1519 1521 1522 1524 1525 1526 1527 1529 1530 1532 1533 1535 1536 1538 1540 1541 1543 1544 1545 1547 1548 1550 1551 1552 1554 1555 1556 1557 1558 1559 1559 1560 1561 1561 1561 1562 1563 1564 1565 1566 1567 1567 1566 1565 1565 1565 1564 1564 1564 1563 1563 1562 1562 1562 1562 1562 1562 1561 1561 1561 1561 1560 1559 1558 1557 1557 1557 1556 1555 1554 1553 1552 1551
1507 1508 1509 1510 1510 1511 1513 1514 1515 1516 1517 1518 1520 1522 1523 1524 1525 1526 1528 1529 1531 1532 1534 1535 1536 1538 1539 1541 1542 1544 1546 1547 1549 1550 1551 1552 1554 1555 1555 1557 1558 1559 1559 1560 1561 1562 1562 1563 1564 1565 1566 1566 1566 1566 1565 1564 1564 1564 1564 1564 1564 1564 1564 1563 1563 1563 1563 1562 1562 1562 1562 1562 1561 1561 1559 1558 1558 1558 1557 1556 1555 1554 1554 1553 1552
1508 1508 1509 1510 1511 1512 1513 1514 1515 1517 1518 1519 1521 1522 1523 1525 1526 1527 1528 1529 1531 1532 1533 1535 1536 1538 1539 1540 1542 1544 1545 1547 1548 1550 1551 1552 1553 1554 1555 1556 1558 1558 1559 1560 1561 1562 1563 1564 1564 1565 1566 1565 1565 1564 1564 1564 1564 1564 1564 1564 1564 1564 1564 1563 1563 1563 1563 1563 1563 1563 1562 1562 1561 1560 1559 1558 1558 1558 1557 1557 1556 1555 1554 1553 1552
1507 1508 1509 1510 1511 1512 1513 1514 1516 1517 1518 1520 1521 1522 1524 1525 1526 1527 1528 1530 1531 1532 1533 1535 1536 1537 1538 1540 1541 1543 1545 1546 1548 1549 1550 1551 1553 1554 1555 1556 1557 1558 1558 1560 1561 1562 1563 1563 1563 1564 1565 1564 1564 1563 1564 1564 1564 1564 1563 1564 1564 1564 1564 1563 1562 1562 1563 1563 1563 1563 1562 1562 1561 1560 1559 1558 1558 1558 1557 1557 1556 1555 1554 1553 1552
1506 1507 1508 1510 1511 1512 1513 1514 1516 1517 1518 1520 1521 1522 1524 1525 1526 1527 1528 1530 1531 1532 1534 1535 1536 1537 1538 1540 1541 1543 1544 1546 1547 1548 1550 1551 1552 1553 1555 1556 1557 1558 1558 1559 1560 1561 1562 1562 1563 1563 1564 1563 1563 1563 1563 1563 1563 1564 1564 1563 1563 1563 1563 1563 1562 1562 1562 1562 1562 1563 1562 1562 1561 1560 1559 1558 1559 1558 1558 1557 1556 1555 1554 1553 1552
1505 1506 1507 1509 1511 1512 1513 1515 1516 1517 1518 1520 1521 1522 1524 1525 1526 1527 1528 1530 1531 1532 1534 1535 1536 1537 1538 1540 1541 1543 1545 1546 1547 1549 1550 1551 1552 1553 1554 1555 1556 1557 1558 1559 1559 1560 1561 1561 1562 1563 1562 1562 1562 1563 1563 1563 1563 1563 1563 1563 1562 1562 1563 1562 1561 1561 1562 1562 1562 1562 1562 1561 1561 1560 1559 1558 1558 1558 1557 1556 1555 1554 1553 1552 1551
1505 1505 1507 1509 1510 1511 1513 1514 1515 1517 1518 1519 1521 1522 1523 1524 1526 1527 1528 1529 1530 1532 1533 1534 1535 1536 1538 1540 1541 1543 1544 1546 1548 1549 1550 1550 1551 1552 1553 1554 1555 1556 1557 1558 1558 1559 1560 1561 1562 1562 1561 1560 1561 1562 1562 1562 1562 1563 1563 1562 1561 1562 1562 1562 1561 1561 1561 1562 1562 1562 1561 1561 1561 1561 1559 1558 1558 1558 1557 1555 1555 1554 1553 1552 1551
1504 1505 1507 1508 1509 1511 1513 1514 1515 1516 1518 1519 1520 1521 1522 1524 1525 1526 1527 1528 1529 1531 1532 1533 1534 1535 1537 1539 1541 1542 1544 1545 1547 1548 1549 1550 1551 1552 1553 1554 1554 1555 1555 1556 1557 1558 1559 1561 1561 1560 1559 1559 1560 1561 1561 1561 1561 1562 1562 1561 1561 1561 1561 1561 1560 1560 1560 1560 1560 1561 1560 1560 1560 1560 1559 1558 1557 1557 1556 1555 1554 1553 1552 1551 1550
1504 1505 1506 1507 1509 1510 1511 1513 1514 1515 1516 1518 1519 1520 1521 1523 1524 1525 1526 1527 1528 1529 1531 1532 1532 1533 1536 1537 1539 1541 1542 1544 1545 1546 1548 1549 1550 1551 1552 1553 1553 1553 1554 1554 1555 1557 1559 1560 1559 1558 1557 1558 1559 1560 1560 1560 1560 1560 1560 1560 1560 1560 1559 1559 1559 1559 1558 1559 1559 1560 1559 1559 1559 1559 1558 1557 1557 1556 1555 1554 1554 1553 1552 1551 1550
1504 1504 1505 1506 1508 1509 1510 1512 1513 1514 1515 1516 1518 1519 1520 1521 1523 1524 1525 1526 1527 1528 1530 1530 1531 1532 1534 1536 1537 1539 1540 1542 1544 1545 1546 1547 1549 1550 1550 1551 1551 1551 1552 1554 1555 1556 1558 1559 1557 1557 1557 1558 1558 1558 1558 1559 1559 1559 1559 1559 1559 1558 1558 1558 1558 1558 1557 1557 1558 1559 1558 1558 1559 1558 1558 1557 1556 1555 1555 1554 1553 1552 1551 1551 1550
1503 1503 1504 1505 1506 1508 1509 1510 1512 1513 1514 1515 1516 1517 1518 1519 1520 1522 1523 1525 1526 1527 1528 1528 1529 1530 1532 1534 1535 1537 1539 1540 1542 1543 1545 1546 1547 1548 1548 1548 1549 1550 1551 1552 1553 1555 1557 1557 1556 1557 1557 1557 1557 1558 1558 1557 1557 1558 1558 1558 1558 1558 1557 1557 1557 1557 1557 1556 1557 1557 1557 1558 1558 1558 1557 1556 1555 1555 1554 1553 1553 1552 1551 1550 1549
1501 1502 1503 1504 1505 1506 1507 1508 1510 1511 1512 1513 1514 1515 1516 1517 1518 1520 1521 1522 1524 1525 1526 1527 1527 1528 1530 1532 1534 1535 1537 1539 1541 1542 1543 1544 1545 1546 1546 1546 1548 1549 1550 1551 1552 1553 1554 1555 1556 1556 1556 1556 1556 1557 1558 1557 1556 1556 1557 1557 1557 1557 1556 1556 1556 1556 1556 1556 1556 1556 1557 1557 1557 1556 1555 1555 1555 1554 1553 1553 1552 1551 1551 1550 1549
1499 1500 1501 1502 1503 1504 1505 1506 1507 1509 1510 1511 1512 1513 1514 1516 1516 1517 1518 1520 1521 1523 1525 1526 1526 1527 1528 1530 1532 1533 1535 1537 1539 1540 1541 1543 1544 1544 1544 1545 1546 1548 1549 1550 1551 1551 1552 1553 1554 1554 1555 1555 1555 1556 1557 1556 1555 1555 1556 1556 1556 1555 1555 1555 1555 1555 1555 1555 1555 1555 1556 1557 1556 1555 1554 1554 1554 1553 1553 1552 1552 1551 1551 1550 1549
1496 1497 1498 1500 1501 1502 1503 1504 1505 1506 1507 1509 1510 1511 1512 1513 1514 1515 1516 1517 1518 1520 1522 1524 1525 1526 1527 1528 1530 1532 1533 1535 1537 1538 1539 1541 1542 1543 1543 1544 1545 1546 1547 1548 1548 1549 1550 1552 1553 1553 1554 1554 1554 1555 1555 1555 1554 1555 1556 1556 1555 1554 1554 1554 1554 1554 1554 1554 1554 1555 1555 1555 1555 1554 1553 1553 1553 1552 1552 1552 1551 1551 1550 1550 1549
1493 1494 1496 1497 1498 1499 1500 1501 1502 1503 1504 1506 1507 1508 1509 1510 1511 1513 1514 1515 1516 1517 1519 1522 1523 1524 1525 1527 1529 1530 1531 1533 1535 1536 1537 1539 1540 1541 1541 1542 1543 1545 1547 1547 1547 1548 1549 1551 1551 1552 1553 1553 1554 1554 1554 1553 1554 1555 1555 1555 1554 1553 1553 1553 1553 1553 1553 1553 1553 1554 1554 1553 1553 1553 1553 1553 1552 1552 1552 1552 1551 1551 1550 1550 1549